Weather History for Cape Girardeau, MO

Change the Weather History Date:

Tuesday, October 9, 2012

  Actual Average Record
Temperature  
Mean Temperature 50 °F 60 °F  
Max Temperature 64 °F 73 °F 89 °F (1980)
Min Temperature 35 °F 47 °F 27 °F (2000)
Degree Days  
Heating Degree Days 15 7  
Month to date heating degree days 92 51  
Since 1 July heating degree days 138 100  
Cooling Degree Days 0 1  
Month to date cooling degree days 2 16  
Year to date cooling degree days 1766 1438  
Moisture  
Dew Point 40 °F    
Average Humidity 68    
Maximum Humidity 92    
Minimum Humidity 44    
Precipitation  
Precipitation 0.00 in 0.12 in 1.42 in (2009)
Month to date precipitation 0.24 1.05  
Year to date precipitation 21.62 35.38  
Sea Level Pressure  
Sea Level Pressure 30.07 in    
Wind  
Wind Speed 6 mph (SSW)    
Max Wind Speed 15 mph    
Max Gust Speed 22 mph    
Visibility 9 miles    
Events      
T = Trace of Precipitation, MM = Missing Value Source: NWS Daily Summary

Daily Weather History Graph

Daily Weather History Graph

Search for Another Location

Airport:

Trip Planner

Search our weather history database for the weather conditions in past years. The results will help you decide how hot, cold, wet, or windy it might be!

Date:

Astronomy

Oct. 09, 2012 Rise Set
Actual Time 7:01 AM CDT 6:29 PM CDT
Civil Twilight 6:35 AM CDT 6:55 PM CDT
Nautical Twilight 6:04 AM CDT 7:25 PM CDT
Astronomical Twilight 5:34 AM CDT 7:55 PM CDT
Moon 12:45 AM CDT (10/9) 2:49 PM CDT (10/9)
Length of Visible Light 12h 20m
Length of Day
11h 27m
Last Quarter, 36% of the Moon is Illuminated
Oct 9
Last Quarter
Oct 15
New
Oct 21
First Quarter
Oct 29
Full
Nov 6
Last Quarter

Hourly Weather History & Observations

Time (CDT) Temp. Windchill Dew Point Humidity Pressure Visibility Wind Dir Wind Speed Gust Speed Precip Events Conditions
12:53 AM 37.9 °F - 36.0 °F 93% 30.13 in 10.0 mi Calm Calm - N/A   Clear
1:53 AM 36.0 °F - 34.0 °F 93% 30.13 in 10.0 mi Calm Calm - N/A   Clear
2:53 AM 37.4 °F - 35.6 °F 93% 30.12 in 10.0 mi Calm Calm - N/A   Clear
3:51 AM 35.6 °F - 33.8 °F 93% 30.12 in 1.8 mi Calm Calm - N/A   Clear
4:07 AM 35.6 °F - 35.6 °F 100% 30.11 in 3.0 mi Calm Calm - N/A   Clear
4:53 AM 36.0 °F 33.3 °F 34.0 °F 93% 30.12 in 8.0 mi SE 3.5 mph - N/A   Clear
5:53 AM 35.1 °F - 34.0 °F 96% 30.13 in 8.0 mi Calm Calm - N/A   Clear
6:53 AM 35.1 °F 32.2 °F 34.0 °F 96% 30.14 in 9.0 mi SSE 3.5 mph - N/A   Clear
7:53 AM 39.9 °F - 37.9 °F 93% 30.14 in 7.0 mi Calm Calm - N/A   Clear
8:53 AM 48.0 °F - 44.1 °F 86% 30.15 in 10.0 mi South 3.5 mph - N/A   Clear
9:53 AM 54.0 °F - 44.1 °F 69% 30.14 in 10.0 mi SW 10.4 mph - N/A   Clear
10:53 AM 57.9 °F - 42.1 °F 56% 30.14 in 10.0 mi SSW 9.2 mph 16.1 mph N/A   Clear
11:53 AM 60.1 °F - 42.1 °F 51% 30.10 in 10.0 mi SSW 15.0 mph 21.9 mph N/A   Clear
12:53 PM 62.1 °F - 43.0 °F 50% 30.07 in 10.0 mi SSW 9.2 mph 18.4 mph N/A   Clear
2:53 PM 64.0 °F - 43.0 °F 46% 30.01 in 10.0 mi South 13.8 mph 19.6 mph N/A   Clear
3:53 PM 64.0 °F - 43.0 °F 46% 29.99 in 10.0 mi SSW 11.5 mph - N/A   Clear
4:53 PM 64.0 °F - 43.0 °F 46% 29.98 in 10.0 mi SSW 11.5 mph - N/A   Clear
5:53 PM 61.0 °F - 43.0 °F 52% 29.98 in 10.0 mi SSW 9.2 mph - N/A   Clear
6:53 PM 55.0 °F - 44.1 °F 67% 29.97 in 10.0 mi South 4.6 mph - N/A   Clear
7:53 PM 51.1 °F - 44.1 °F 77% 29.99 in 10.0 mi SSW 5.8 mph - N/A   Clear
8:53 PM 51.1 °F - 45.0 °F 80% 29.99 in 10.0 mi South 5.8 mph - N/A   Clear
10:53 PM 57.0 °F - 46.0 °F 67% 30.00 in 10.0 mi SW 5.8 mph - N/A   Overcast
11:53 PM 54.0 °F - 48.0 °F 80% 30.01 in 10.0 mi Calm Calm - N/A   Overcast